Regional Weather Roundup
Issued by NWS Bismarck, ND

Home | Current Version | Previous Version | Text Only | Print | Product List | Glossary On
Versions: 1 2 3 4 5 6 7 8 9 10 11 12 13 14 15 16 17 18 19 20 21 22 23 24 25 26 27 28 29 30 31 32 33 34 35 36 37 38 39 40 41 42 43 44 45 46 47 48 49 50
000
ASUS43 KBIS 192002
RWRBIS

NWR BROADCAST TEXT
NATIONAL WEATHER SERVICE BISMARCK ND
200 PM CST FRI JAN 19 2018

NOTE: "FAIR" INDICATES FEW OR NO CLOUDS BELOW 12,000 FEET WITH NO
SIGNIFICANT WEATHER AND/OR OBSTRUCTIONS TO VISIBILITY.


CITY           SKY/WX    TMP DP  RH WIND       PRES   REMARKS
WILLISTON      SUNNY     39  23  52 W14       29.60F
MINOT          FAIR      42  29  59 W8        29.55R
MINOT AFB      PTSUNNY   41  30  65 W13       29.54R
BISMARCK       CLOUDY    43  32  65 W12       29.62R
DICKINSON      FAIR      39  31  72 W16       29.60F
GARRISON         N/A     40  31  70 W9        29.58R
HETTINGER ARPT PTSUNNY   38  31  76 W14       29.66F
JAMESTOWN      FAIR      42  31  64 NW15      29.53S
CARRINGTON     FAIR      41  32  70 W15       29.55R
HAZEN            N/A     41  32  70 W13       29.61F
LINTON           N/A     43  30  61 W12       29.62R
MANDAN         CLOUDY    39  32  75 W13       29.61S
OAKES            N/A     43  32  65 NW14      29.54S
RUGBY          FAIR      37  30  75 W16       29.51S
STANLEY        FAIR      37  30  75 W14       29.58S
TIOGA          FAIR      36  32  87 W13       29.59S
WATFORD CITY   FAIR      39  30  70 W12       29.62S
$$

CITY           SKY/WX    TMP DP  RH WIND       PRES   REMARKS
GRAND FORKS    PTSUNNY   39  32  76 NW8       29.48R
GRAND FORKS AF FAIR      41  31  68 NW9       29.48R
DEVILS LAKE    FAIR      38  30  73 W15         N/A
FARGO          FAIR      40  32  73 W7        29.51R
CANDO          FAIR      37  32  81 W17       29.51S
CAVALIER         N/A     39  32  75 W14       29.45R
GRAFTON        FAIR      39  32  75 W8        29.49R
GWINNER          N/A     43  32  65 NW14      29.52S
LANGDON        FAIR      37  36  93 W16       29.46R
ROLLA          FAIR      41  30  65 W14G22    29.47S
WALHALLA       FAIR      41  34  75 NW12      29.45R
$$

CITY           SKY/WX    TMP DP  RH WIND       PRES   REMARKS
ABERDEEN       PTSUNNY   49  32  52 NW8       29.56S
MOBRIDGE       CLOUDY    43  32  65 NW13      29.60R
BUFFALO          N/A     38  32  79 W9        29.62R
RAPID CITY     CLOUDY    43  31  62 N12       29.68F
GLASGOW        CLOUDY    36  29  75 W6        29.64S
SIDNEY         CLOUDY    40  30  67 S7        29.64S
WOLF POINT     CLOUDY    40  30  67 SW3       29.65S
GLENDIVE       CLOUDY    37  33  85 W12       29.67R
MILES CITY     CLOUDY    37  34  89 S10       29.69S
BAKER          CLOUDY    36  34  92 W13       29.68S
$$

CITY           SKY/WX    TMP DP  RH WIND       PRES   REMARKS
BILLINGS       CLOUDY    38  36  92 SW9       29.69R
GREAT FALLS    CLOUDY    39  24  55 W15       29.68S
$$




USA.gov is the U.S. government's official web portal to all federal, state and local government web resources and services.